Wind_Speed
20 19 19 20 19 18 18 19 18 19 20 20 21 21 21 20 20 21 21 21 21 22 22 22 22 22 22 21 21 21 21 21 21 21 20 21 20 19 18 19 18 19 19
20 19 19 20 19 19 19 19 19 19 19 20 21 21 20 19 19 19 20 20 21 21 22 23 23 23 23 23 22 22 22 22 22 22 22 22 21 20 20 20 20 19 19
21 20 20 19 20 19 20 19 19 19 19 18 18 19 20 19 19 20 19 20 21 21 22 22 22 23 24 23 23 23 23 23 23 24 23 23 22 22 21 21 22 21 21
20 20 20 20 20 20 19 19 19 20 19 19 19 19 19 20 20 19 19 20 20 21 21 21 22 23 24 24 24 24 24 24 25 25 24 24 23 23 23 23 22 22 22
20 20 20 19 19 19 19 19 19 20 19 19 19 19 20 21 21 20 20 21 21 22 22 22 23 23 24 25 24 24 25 25 25 25 25 25 25 25 24 24 24 23 23
20 19 19 19 19 19 19 20 20 20 20 19 18 19 19 20 20 21 21 22 22 22 22 23 23 23 24 24 24 25 25 25 26 26 26 26 26 26 26 25 24 24 24
20 19 19 20 20 20 21 21 20 20 19 19 19 20 20 20 21 22 22 23 23 23 23 23 24 24 24 24 25 25 25 25 25 25 25 25 26 26 26 26 25 25 25
20 20 20 20 20 20 20 21 21 20 20 19 19 20 20 21 22 23 24 24 24 23 24 24 25 24 24 24 24 25 25 25 25 26 26 26 26 26 26 26 25 25 25
21 21 20 20 20 20 20 21 21 21 21 21 20 20 21 21 22 24 25 25 25 25 25 24 24 25 24 25 24 25 25 24 24 25 25 25 26 26 26 26 26 25 25
21 20 21 20 20 19 20 20 22 22 22 22 21 21 21 22 23 24 25 25 25 25 24 24 25 25 25 25 25 25 25 24 24 25 25 25 25 25 25 24 25 25 25
20 20 20 21 20 20 20 20 20 21 21 22 22 22 22 22 22 23 24 24 24 24 24 25 25 25 26 26 26 26 25 26 25 25 25 25 25 25 24 24 24 25 25
21 21 21 20 21 21 21 21 21 21 21 21 22 22 22 22 21 21 22 22 23 24 24 25 25 26 26 26 26 26 26 26 26 26 25 25 24 24 24 24 25 25 25
21 21 21 21 21 21 21 21 22 22 22 22 23 23 23 23 23 22 23 23 23 24 24 24 25 25 25 25 25 26 26 26 26 26 25 24 23 23 23 24 24 25 25
21 21 21 21 21 22 22 23 23 24 25 25 25 25 25 25 25 25 25 25 25 24 25 25 25 26 25 25 25 25 25 25 25 24 24 24 23 23 23 23 23 23 24
22 22 22 22 22 23 23 24 24 25 25 26 26 26 26 25 25 25 25 25 24 24 25 25 25 25 25 25 26 25 24 25 25 24 24 24 24 23 23 23 23 23 24
23 23 23 23 24 24 24 25 25 26 26 27 27 27 27 26 26 25 25 25 25 25 25 24 25 25 24 24 23 23 23 24 24 25 25 24 24 24 23 23 23 23 23
24 24 24 25 25 25 25 25 26 27 27 27 27 27 27 27 26 26 26 26 26 25 25 24 24 24 23 23 23 23 23 23 23 24 24 24 24 24 24 24 24 24 23
25 25 25 25 25 26 26 26 27 27 27 28 27 27 27 27 27 26 26 26 26 26 25 25 24 24 23 23 23 23 23 23 24 24 24 24 23 23 23 23 23 24 23
25 25 25 25 26 26 26 26 27 27 27 27 27 28 28 28 28 27 27 27 26 25 25 25 25 25 24 24 23 23 23 23 23 24 23 23 23 23 23 23 23 23 23
23 24 25 26 26 26 26 26 26 26 27 27 28 27 27 28 27 27 27 27 27 26 25 25 25 25 24 24 24 24 24 23 23 23 24 23 23 23 23 23 23 23 22
23 24 25 26 27 27 27 27 27 27 28 28 28 27 27 27 27 27 27 28 27 27 26 26 26 26 25 25 25 25 25 25 24 24 24 24 24 24 23 23 23 23 23
23 24 24 25 25 26 26 26 26 26 26 26 26 26 26 26 26 26 27 27 27 27 27 27 26 25 25 25 25 25 25 25 25 25 24 24 24 24 23 23 24 23 23
23 23 23 24 23 23 23 24 24 24 24 24 25 26 25 25 25 26 26 26 27 27 26 26 26 25 25 24 25 24 24 24 24 24 24 24 24 24 24 24 24 23 23
22 22 22 23 22 21 22 22 23 22 23 23 24 24 24 25 25 25 25 25 25 25 25 26 26 26 26 26 25 24 24 24 25 25 25 24 24 24 24 24 24 24 23
20 21 21 21 21 20 20 20 20 21 22 22 23 23 23 24 24 24 24 24 24 25 25 25 25 26 26 26 26 26 26 26 26 26 26 25 25 25 25 25 25 24 24
18 19 19 19 19 19 18 18 18 19 20 20 21 21 22 22 22 23 23 24 24 24 24 25 25 25 25 25 24 24 24 25 26 26 26 25 25 25 25 25 25 24 24
Wind_Direction
272 271 269 270 271 269 267 262 260 260 257 254 252 250 250 249 246 244 244 246 245 246 248 251 252 255 257 260 264 267 270 270 271 273 276 277 279 281 280 279 278 280 280
272 269 270 268 268 269 269 267 266 261 261 256 252 249 248 249 248 247 249 249 246 246 249 253 255 257 258 260 264 267 269 270 272 274 274 275 276 278 279 280 280 280 280
271 268 268 268 266 268 270 266 264 263 261 258 255 250 249 250 252 251 249 250 248 249 252 255 256 258 258 259 262 266 268 270 271 273 273 273 275 277 278 278 280 280 281
270 268 269 267 265 265 268 266 264 262 261 257 253 251 250 252 253 253 251 252 252 254 255 256 258 258 258 260 264 266 267 270 272 273 272 272 274 275 277 278 277 279 279
269 268 266 263 262 263 266 265 262 261 259 258 255 252 252 252 251 251 252 254 255 256 257 260 262 263 263 262 263 264 267 270 272 273 271 272 273 274 274 276 276 277 277
268 267 264 262 262 263 264 264 263 260 259 259 258 256 255 253 253 253 254 255 256 257 260 264 265 266 265 263 264 265 268 270 271 272 271 271 272 272 272 274 275 274 275
267 266 265 263 262 263 262 261 261 259 258 260 257 259 257 254 254 255 257 257 257 259 262 264 266 264 264 264 263 264 268 270 271 271 270 272 272 272 272 273 272 274 273
264 264 264 264 263 263 262 261 261 259 259 260 260 260 259 256 255 257 258 258 257 260 263 265 263 265 265 264 265 266 268 271 272 271 271 271 270 269 271 271 272 274 274
266 267 264 264 264 262 261 259 259 260 260 261 263 263 261 260 259 259 260 261 262 263 264 264 265 265 264 264 266 267 268 269 271 271 271 271 271 269 268 270 272 272 271
269 269 266 264 265 263 261 261 260 261 260 260 262 263 263 263 262 260 261 263 263 262 262 264 265 265 264 264 265 267 267 267 268 269 270 271 271 269 269 270 271 271 270
269 266 266 265 263 263 263 263 262 262 261 260 261 264 266 267 267 264 264 265 264 262 262 263 264 264 264 264 265 267 267 267 266 267 268 270 270 270 270 270 271 272 271
266 266 266 266 263 262 260 261 262 262 263 262 262 263 265 265 267 267 265 266 266 264 264 264 264 263 264 264 265 267 267 266 266 265 265 268 270 271 271 270 271 271 271
265 265 265 265 262 261 260 259 261 262 262 263 264 263 264 265 266 266 264 265 267 266 265 264 263 264 264 264 266 267 266 266 265 264 265 267 269 270 270 271 272 271 271
265 265 265 265 265 262 261 261 262 262 263 264 264 264 265 266 266 264 263 264 265 265 265 265 264 265 264 265 267 267 266 266 266 265 265 266 267 268 270 271 271 272 271
266 266 266 266 266 266 263 262 263 263 263 264 265 266 265 264 264 263 263 264 263 264 265 265 264 264 265 265 266 267 267 266 265 264 264 265 266 268 270 272 272 271 271
266 264 265 266 265 265 264 263 264 265 265 265 265 266 266 264 263 262 262 263 263 264 264 264 266 267 267 267 267 267 267 267 266 265 264 265 266 268 270 272 273 272 271
267 267 266 266 266 266 267 266 264 264 265 264 263 263 264 264 264 263 263 264 264 264 264 265 266 267 268 269 268 268 267 266 266 266 265 265 265 266 268 270 271 272 272
268 270 268 267 267 268 269 269 267 265 265 264 262 262 263 264 264 264 264 263 263 263 264 264 266 268 269 269 268 267 266 265 265 266 265 265 265 266 269 271 272 272 270
268 270 270 270 270 269 269 268 267 265 265 264 263 262 263 263 263 262 263 264 264 263 263 264 265 267 267 267 267 266 265 266 265 265 265 265 264 264 267 270 273 273 271
269 269 271 272 272 271 269 268 267 265 264 265 265 265 264 263 262 263 264 264 264 264 264 264 263 264 265 266 266 267 267 267 266 265 265 265 265 265 267 269 271 272 270
273 273 274 274 273 272 270 270 270 268 267 266 266 266 265 264 263 263 263 264 265 265 264 263 261 261 263 265 266 267 267 267 266 265 265 263 264 266 266 268 269 270 270
278 279 279 279 277 273 271 270 268 268 267 265 264 265 265 263 262 262 262 263 264 265 264 263 262 261 262 263 264 265 267 267 265 264 265 264 264 265 265 266 267 268 269
281 281 282 281 280 275 271 270 269 269 267 266 266 265 264 262 261 263 264 264 264 263 264 263 261 261 262 263 265 264 264 264 263 263 263 263 264 264 265 267 268 269 269
282 283 283 282 278 275 273 272 270 269 268 268 266 266 264 263 262 262 262 262 262 261 261 262 260 260 261 262 263 263 263 263 263 262 261 261 263 264 265 266 267 267 268
284 285 285 282 276 273 274 273 270 269 270 269 268 268 267 265 263 262 261 261 260 260 260 260 260 260 262 262 263 263 262 261 261 260 260 261 262 264 266 267 267 267 266
283 284 285 283 277 274 273 273 271 270 270 270 269 269 268 266 263 263 262 262 261 259 259 260 260 261 261 262 262 264 263 262 260 259 259 261 263 265 266 266 267 267 266
Height
5801 5801 5801 5801 5801 5801 5801 5801 5801 5801 5801 5802 5803 5803 5804 5805 5805 5806 5807 5809 5811 5813 5814 5815 5816 5817 5818 5819 5819 5820 5819 5819 5819 5819 5818 5818 5817 5816 5815 5814 5813 5813 5812
5796 5796 5796 5796 5796 5796 5796 5796 5796 5796 5795 5796 5797 5798 5799 5800 5800 5801 5802 5803 5805 5807 5808 5809 5810 5811 5812 5813 5814 5814 5814 5814 5814 5813 5813 5812 5811 5811 5810 5810 5808 5807 5806
5790 5790 5790 5790 5791 5790 5790 5790 5791 5791 5791 5791 5792 5792 5793 5794 5795 5796 5797 5799 5800 5801 5802 5803 5804 5805 5806 5806 5807 5807 5807 5808 5808 5807 5807 5806 5806 5805 5804 5804 5803 5802 5801
5784 5784 5784 5784 5785 5785 5785 5785 5785 5785 5786 5786 5786 5787 5788 5789 5790 5791 5792 5793 5794 5795 5796 5797 5798 5798 5799 5799 5800 5800 5801 5801 5801 5800 5800 5800 5799 5799 5798 5798 5797 5796 5795
5779 5779 5779 5779 5779 5779 5779 5780 5780 5780 5780 5780 5781 5781 5782 5783 5784 5785 5786 5787 5788 5789 5790 5791 5791 5791 5792 5792 5793 5793 5794 5794 5794 5793 5793 5793 5792 5792 5792 5791 5790 5789 5788
5773 5773 5773 5774 5774 5774 5774 5774 5774 5774 5774 5775 5775 5776 5776 5777 5778 5779 5780 5781 5782 5783 5784 5784 5784 5784 5785 5785 5785 5786 5787 5787 5786 5786 5786 5786 5785 5785 5784 5784 5783 5783 5782
5768 5767 5768 5768 5768 5768 5768 5768 5768 5769 5769 5770 5770 5770 5771 5771 5772 5773 5774 5775 5776 5776 5777 5777 5777 5777 5777 5778 5778 5778 5779 5779 5779 5778 5778 5778 5777 5777 5777 5777 5776 5775 5775
5761 5762 5762 5762 5762 5762 5762 5762 5763 5763 5763 5764 5764 5764 5764 5765 5766 5766 5767 5768 5768 5769 5769 5770 5770 5770 5770 5770 5770 5771 5771 5771 5771 5771 5771 5770 5769 5769 5769 5769 5768 5768 5768
5755 5755 5756 5756 5755 5755 5756 5756 5756 5757 5757 5757 5758 5758 5758 5758 5759 5759 5760 5760 5761 5762 5762 5762 5762 5763 5763 5763 5763 5763 5763 5763 5763 5763 5763 5763 5762 5762 5761 5761 5761 5761 5761
5748 5749 5749 5749 5749 5749 5750 5750 5750 5751 5751 5751 5751 5751 5752 5752 5752 5752 5753 5753 5754 5754 5754 5755 5755 5755 5756 5755 5755 5756 5756 5756 5755 5755 5755 5755 5755 5754 5754 5754 5753 5753 5753
5742 5742 5742 5742 5743 5743 5743 5744 5744 5744 5744 5745 5745 5745 5745 5745 5745 5745 5746 5745 5746 5746 5746 5747 5747 5748 5748 5748 5748 5748 5748 5748 5748 5748 5747 5747 5747 5747 5747 5746 5746 5746 5746
5736 5736 5736 5736 5736 5736 5737 5737 5737 5738 5738 5738 5739 5739 5738 5738 5739 5738 5738 5738 5738 5738 5739 5739 5739 5740 5740 5740 5740 5740 5740 5740 5740 5740 5740 5740 5739 5739 5739 5739 5738 5738 5738
5729 5729 5729 5729 5729 5729 5730 5730 5731 5731 5731 5732 5732 5732 5732 5732 5731 5731 5731 5731 5731 5731 5731 5731 5732 5732 5732 5732 5732 5732 5732 5732 5732 5732 5732 5732 5732 5731 5731 5731 5731 5730 5730
5722 5722 5722 5722 5722 5722 5723 5723 5723 5724 5724 5724 5724 5724 5724 5724 5724 5724 5724 5723 5723 5723 5723 5724 5724 5724 5724 5724 5724 5724 5724 5724 5724 5724 5725 5725 5724 5724 5724 5724 5723 5723 5723
5715 5715 5715 5715 5715 5715 5715 5715 5715 5716 5716 5716 5716 5716 5716 5716 5716 5716 5715 5716 5715 5715 5715 5716 5716 5717 5717 5716 5716 5716 5716 5716 5717 5717 5717 5717 5717 5717 5717 5717 5716 5716 5716
5707 5707 5707 5707 5707 5707 5707 5707 5707 5707 5707 5707 5707 5708 5708 5708 5707 5707 5708 5708 5707 5707 5708 5708 5708 5708 5708 5708 5708 5708 5708 5709 5709 5709 5709 5710 5710 5710 5710 5709 5709 5709 5709
5699 5699 5699 5699 5699 5698 5698 5699 5699 5699 5699 5699 5699 5699 5699 5699 5699 5699 5700 5700 5700 5700 5700 5700 5700 5700 5700 5700 5700 5700 5700 5701 5701 5701 5701 5702 5702 5702 5702 5702 5702 5701 5701
5690 5691 5691 5690 5690 5690 5690 5690 5690 5690 5690 5690 5690 5690 5691 5691 5691 5691 5691 5691 5692 5692 5692 5692 5693 5693 5693 5692 5692 5693 5693 5693 5693 5693 5694 5694 5694 5694 5694 5694 5694 5694 5694
5682 5682 5682 5682 5681 5681 5681 5680 5680 5680 5681 5681 5681 5681 5682 5682 5682 5682 5682 5683 5683 5683 5684 5684 5684 5685 5685 5685 5685 5685 5685 5685 5685 5686 5686 5686 5686 5687 5687 5687 5687 5687 5687
5674 5674 5673 5673 5672 5672 5671 5671 5671 5671 5672 5672 5672 5672 5672 5673 5673 5674 5674 5675 5675 5675 5675 5676 5676 5676 5676 5676 5677 5677 5677 5677 5678 5678 5678 5679 5679 5679 5680 5680 5680 5680 5679
5665 5665 5664 5664 5663 5663 5663 5663 5663 5663 5663 5663 5663 5663 5663 5664 5664 5665 5665 5666 5666 5666 5666 5667 5667 5668 5668 5668 5668 5668 5669 5669 5670 5670 5671 5671 5672 5672 5672 5672 5672 5672 5672
5657 5656 5656 5655 5654 5654 5654 5654 5653 5653 5654 5654 5654 5654 5654 5655 5656 5656 5656 5657 5657 5657 5658 5658 5658 5659 5659 5660 5660 5660 5661 5661 5661 5662 5663 5663 5664 5664 5664 5664 5664 5664 5664
5649 5648 5647 5646 5646 5645 5645 5645 5645 5645 5645 5645 5645 5646 5646 5646 5647 5647 5648 5648 5648 5649 5649 5650 5650 5650 5651 5651 5652 5652 5653 5653 5653 5654 5654 5655 5655 5656 5656 5656 5656 5656 5657
5641 5640 5639 5638 5638 5637 5637 5637 5637 5636 5636 5637 5637 5637 5637 5637 5638 5638 5639 5639 5640 5640 5640 5641 5642 5642 5643 5643 5643 5644 5644 5645 5645 5646 5646 5647 5647 5648 5648 5648 5648 5648 5649
5634 5633 5632 5631 5630 5630 5630 5629 5629 5629 5629 5629 5629 5629 5629 5629 5629 5630 5630 5630 5631 5631 5632 5633 5633 5634 5634 5635 5635 5635 5636 5636 5637 5637 5638 5638 5639 5639 5640 5640 5640 5640 5641
5627 5626 5625 5624 5623 5623 5623 5622 5622 5622 5622 5622 5621 5621 5621 5621 5621 5621 5622 5622 5622 5623 5624 5624 5625 5625 5626 5626 5627 5627 5627 5628 5628 5629 5629 5630 5631 5631 5631 5632 5632 5632 5633